Location: Unspecified
(38.9820°N, 94.4650°W)
Time: 02:56:31
(UTC-06:00)

Okean 3 - Visible Passes

Search period start: 27 February 2017 00:00
Search period end: 09 March 2017 00:00
Orbit: 579 x 602 km, 82.5° (Epoch: 26 February)

Date Brightness Start Highest point End Pass type
(mag) Time Alt. Az. Time Alt. Az. Time Alt. Az.
27 Feb 3.7 06:13:28 10° S 06:17:45 80° E 06:22:05 10° N visible
28 Feb 3.5 06:21:49 10° SSW 06:26:05 66° W 06:30:23 10° N visible
01 Mar 6.8 04:55:20 10° ESE 04:57:37 14° E 04:59:54 10° NE visible
02 Mar 6.2 05:02:31 10° SE 05:05:47 21° E 05:09:03 10° NE visible
03 Mar 5.4 05:10:10 10° SSE 05:13:59 32° E 05:17:49 10° NNE visible
04 Mar 4.5 05:18:05 10° SSE 05:22:13 49° E 05:26:24 10° NNE visible
05 Mar 3.6 05:26:13 10° S 05:30:30 78° E 05:34:50 10° N visible
06 Mar 3.4 05:34:32 10° SSW 05:38:49 68° W 05:43:08 10° N visible
07 Mar 6.6 04:08:09 10° ESE 04:10:22 14° E 04:12:33 10° NE visible
07 Mar 3.8 05:43:04 10° SSW 05:47:11 43° W 05:51:18 10° N visible
08 Mar 6.0 04:15:18 10° SE 04:18:31 21° E 04:21:44 10° NE visible
08 Mar 4.4 05:51:50 10° SW 05:55:34 29° WNW 05:59:20 10° NNW visible
